Overview Statistics Trail Chart Weather Telemetry Raw packets
 

This is the latest recevied weather packets stored in our database for station/object S59MA-6. If no packets are shown the sender has not sent any weather packets the latest 10 day(s).

<< 96 97 98 99 100 101 102 >>
Time Temp. Humidity Pressure Rain* Wind** Luminosity Snow
1787808043 18.33° C 89% 1006.8 hPa 0 mm - - -
1787807742 17.78° C 89% 1007 hPa 0 mm - - -
1787807443 16.67° C 89% 1006.9 hPa 0 mm - - -
1787807143 16.11° C 88% 1006.7 hPa 0 mm - - -
1787806842 16.11° C 88% 1006.7 hPa 0 mm - - -
1787806242 15.56° C 88% 1006.5 hPa 0 mm - - -
1787805946 15.56° C 88% 1006.6 hPa 0 mm - - -
1787805642 15.56° C 88% 1006.7 hPa 0 mm - - -
1787805342 15.56° C 88% 1006.5 hPa 0 mm - - -
1787805042 15.56° C 88% 1006.8 hPa 0 mm - - -
1787804742 16.11° C 88% 1006.8 hPa 0 mm - - -
1787804442 16.11° C 88% 1006.6 hPa 0 mm - - -
1787804142 16.11° C 88% 1006.6 hPa 0 mm - - -
1787803842 16.11° C 88% 1006.6 hPa 0 mm - - -
1787803542 16.11° C 88% 1006.8 hPa 0 mm - - -
1787803243 16.11° C 88% 1006.4 hPa 0 mm - - -
1787802945 16.11° C 88% 1006.5 hPa 0 mm - - -
1787802642 16.11° C 88% 1006.5 hPa 0 mm - - -
1787802343 16.11° C 88% 1006.6 hPa 0 mm - - -
1787802042 16.11° C 88% 1006.5 hPa 0 mm - - -
1787801748 16.11° C 88% 1006.5 hPa 0 mm - - -
1787801442 16.11° C 88% 1006.4 hPa 0 mm - - -
1787801147 16.11° C 88% 1006.4 hPa 0 mm - - -
1787800849 16.11° C 87% 1006.6 hPa 0 mm - - -
1787800544 16.11° C 87% 1006.4 hPa 0 mm - - -

* Rain latest hour (hover to see other rain measurements)
** Current wind speed in m/s (hover to see current wind gust speed)